| time (UTC) | temp F | wind direction | speed knots | gust knots | rain 1hr in | rain 24hr in | rain mn in | humidity % | barometer mb |
| 20260508105142 | 38 | 158 | 0.0 | 0.0 | 0.00 | 0.00 | 0.00 | 99 | 1018.9 |
| 20260508103936 | 38 | 338 | 0.0 | 0.0 | 0.00 | 0.00 | 0.00 | 99 | 1018.9 |
| 20260508103338 | 38 | 293 | 0.0 | 1.7 | 0.00 | 0.00 | 0.00 | 99 | 1019.3 |
| 20260508102715 | 38 | 270 | 0.0 | 0.0 | 0.00 | 0.00 | 0.00 | 99 | 1019.3 |
| 20260508102115 | 38 | 338 | 0.0 | 0.0 | 0.00 | 0.00 | 0.00 | 99 | 1018.9 |
| 20260508101512 | 38 | 270 | 0.0 | 0.0 | 0.00 | 0.00 | 0.00 | 99 | 1018.9 |
| 20260508100938 | 38 | 270 | 0.0 | 0.0 | 0.00 | 0.00 | 0.00 | 99 | 1018.9 |
| 20260508100331 | 38 | 0 | 0.0 | 0.9 | 0.00 | 0.00 | 0.00 | 99 | 1018.9 |
| 20260508095748 | 38 | 293 | 0.0 | 0.0 | 0.00 | 0.00 | 0.00 | 99 | 1018.9 |
| 20260508095130 | 38 | 293 | 0.0 | 0.0 | 0.00 | 0.00 | 0.00 | 99 | 1018.9 |
| 20260508094522 | 38 | 270 | 0.0 | 0.0 | 0.00 | 0.00 | 0.00 | 99 | 1018.9 |
| 20260508093943 | 38 | 0 | 0.0 | 0.9 | 0.00 | 0.00 | 0.00 | 99 | 1018.9 |
| 20260508092722 | 38 | 270 | 0.0 | 0.0 | 0.00 | 0.00 | 0.00 | 99 | 1018.9 |
| 20260508092142 | 38 | 270 | 0.0 | 0.0 | 0.00 | 0.00 | 0.00 | 99 | 1018.9 |
| 20260508091528 | 38 | 203 | 0.0 | 0.0 | 0.00 | 0.00 | 0.00 | 99 | 1018.9 |
| 20260508090932 | 38 | 270 | 0.0 | 0.9 | 0.00 | 0.00 | 0.00 | 99 | 1018.6 |
| 20260508085139 | 37 | 338 | 0.0 | 0.0 | 0.00 | 0.00 | 0.00 | 99 | 1018.6 |
| 20260508084547 | 37 | 270 | 0.0 | 0.0 | 0.00 | 0.00 | 0.00 | 99 | 1018.6 |
| 20260508083912 | 37 | 270 | 0.0 | 0.9 | 0.00 | 0.00 | 0.00 | 99 | 1018.6 |
| 20260508083313 | 37 | 270 | 0.0 | 0.0 | 0.00 | 0.00 | 0.00 | 99 | 1018.6 |
| 20260508082735 | 37 | 270 | 0.0 | 0.0 | 0.00 | 0.00 | 0.00 | 99 | 1018.6 |
| 20260508082150 | 37 | 338 | 0.0 | 0.0 | 0.00 | 0.00 | 0.00 | 99 | 1018.6 |
| 20260508081537 | 37 | 293 | 0.0 | 0.0 | 0.00 | 0.00 | 0.00 | 99 | 1018.6 |
| 20260508080328 | 37 | 248 | 0.0 | 0.0 | 0.00 | 0.00 | 0.00 | 99 | 1018.6 |
| 20260508075731 | 36 | 248 | 0.0 | 0.0 | 0.00 | 0.00 | 0.00 | 99 | 1018.6 |
| 20260508075120 | 37 | 270 | 0.0 | 0.0 | 0.00 | 0.00 | 0.00 | 99 | 1018.6 |
| 20260508074529 | 37 | 270 | 0.0 | 0.0 | 0.00 | 0.00 | 0.00 | 99 | 1018.6 |
| 20260508073327 | 37 | 293 | 0.0 | 0.0 | 0.00 | 0.00 | 0.00 | 99 | 1018.6 |
| 20260508072733 | 37 | 293 | 0.0 | 0.0 | 0.00 | 0.00 | 0.00 | 99 | 1018.6 |
| 20260508072115 | 38 | 270 | 0.0 | 0.0 | 0.00 | 0.00 | 0.00 | 99 | 1018.2 |
| 20260508071537 | 37 | 293 | 0.0 | 0.0 | 0.00 | 0.00 | 0.00 | 99 | 1018.6 |
| 20260508070950 | 38 | 225 | 0.0 | 0.0 | 0.00 | 0.00 | 0.00 | 99 | 1018.2 |
| 20260508070338 | 38 | 225 | 0.0 | 0.9 | 0.00 | 0.00 | 0.00 | 99 | 1018.2 |
| 20260508065738 | 38 | 225 | 0.0 | 0.0 | 0.00 | 0.00 | 0.00 | 99 | 1018.6 |
| 20260508065133 | 38 | 248 | 0.0 | 0.0 | 0.00 | 0.00 | 0.00 | 99 | 1018.2 |
| 20260508064520 | 39 | 203 | 0.0 | 0.0 | 0.00 | 0.00 | 0.00 | 99 | 1018.6 |
| 20260508063925 | 38 | 270 | 0.0 | 0.0 | 0.00 | 0.00 | 0.00 | 99 | 1018.6 |
| 20260508063318 | 38 | 270 | 0.0 | 0.0 | 0.00 | 0.00 | 0.00 | 99 | 1018.6 |
| 20260508062742 | 38 | 270 | 0.0 | 0.0 | 0.00 | 0.00 | 0.00 | 99 | 1018.6 |
| 20260508062146 | 38 | 270 | 0.0 | 0.0 | 0.00 | 0.00 | 0.00 | 99 | 1018.6 |
| 20260508061530 | 39 | 225 | 0.0 | 0.0 | 0.00 | 0.00 | 0.00 | 99 | 1018.6 |
| 20260508060909 | 40 | 248 | 0.0 | 0.0 | 0.00 | 0.00 | 0.00 | 99 | 1018.6 |
| 20260508060341 | 39 | 248 | 0.0 | 0.0 | 0.00 | 0.00 | 0.00 | 99 | 1018.6 |
| 20260508055751 | 39 | 270 | 0.0 | 0.0 | 0.00 | 0.00 | 0.00 | 99 | 1018.6 |
| 20260508055141 | 39 | 225 | 0.0 | 0.0 | 0.00 | 0.00 | 0.00 | 99 | 1018.6 |
| 20260508054544 | 39 | 225 | 0.0 | 0.0 | 0.00 | 0.00 | 0.00 | 99 | 1018.6 |
| 20260508052737 | 40 | 203 | 0.0 | 0.0 | 0.00 | 0.00 | 0.00 | 99 | 1018.6 |
| 20260508052132 | 40 | 248 | 0.0 | 0.0 | 0.00 | 0.00 | 0.00 | 99 | 1018.6 |
| 20260508051526 | 40 | 270 | 0.0 | 0.0 | 0.00 | 0.00 | 0.00 | 99 | 1018.6 |
| 20260508050945 | 40 | 248 | 0.0 | 0.0 | 0.00 | 0.00 | 0.00 | 99 | 1018.6 |
| 20260508050309 | 40 | 225 | 0.0 | 0.0 | 0.00 | 0.00 | 0.00 | 99 | 1018.6 |
| 20260508045724 | 40 | 248 | 0.0 | 0.0 | 0.00 | 0.00 | 0.00 | 99 | 1018.2 |
| 20260508045128 | 40 | 270 | 0.0 | 0.0 | 0.00 | 0.00 | 0.00 | 99 | 1018.2 |
| 20260508044542 | 41 | 248 | 0.0 | 0.0 | 0.00 | 0.00 | 0.00 | 99 | 1018.2 |
| 20260508043936 | 41 | 225 | 0.0 | 0.0 | 0.00 | 0.00 | 0.00 | 99 | 1018.6 |
| 20260508043347 | 41 | 225 | 0.0 | 0.0 | 0.00 | 0.00 | 0.00 | 99 | 1018.2 |
| 20260508042723 | 41 | 225 | 0.0 | 0.0 | 0.00 | 0.00 | 0.00 | 99 | 1018.2 |
| 20260508042141 | 42 | 225 | 0.0 | 0.0 | 0.00 | 0.00 | 0.00 | 99 | 1018.6 |
| 20260508041532 | 42 | 203 | 0.0 | 0.0 | 0.00 | 0.00 | 0.00 | 99 | 1018.2 |
| 20260508040318 | 42 | 203 | 0.0 | 0.0 | 0.00 | 0.00 | 0.00 | 99 | 1018.2 |
| 20260508035120 | 42 | 225 | 0.0 | 0.9 | 0.00 | 0.00 | 0.00 | 99 | 1018.2 |
| 20260508034526 | 43 | 203 | 0.0 | 0.0 | 0.00 | 0.00 | 0.00 | 99 | 1018.2 |
| 20260508033916 | 43 | 180 | 0.0 | 0.0 | 0.00 | 0.00 | 0.00 | 99 | 1018.2 |
| 20260508033321 | 43 | 225 | 0.0 | 0.9 | 0.00 | 0.00 | 0.00 | 99 | 1018.2 |
| 20260508032734 | 44 | 203 | 0.9 | 1.7 | 0.00 | 0.00 | 0.00 | 99 | 1018.2 |
| 20260508032146 | 44 | 158 | 0.0 | 0.0 | 0.00 | 0.00 | 0.00 | 99 | 1018.2 |
| 20260508031526 | 44 | 158 | 0.0 | 0.0 | 0.00 | 0.00 | 0.00 | 99 | 1018.2 |
| 20260508030931 | 44 | 180 | 0.9 | 0.9 | 0.00 | 0.00 | 0.00 | 99 | 1017.9 |
| 20260508030311 | 44 | 203 | 0.0 | 0.9 | 0.00 | 0.00 | 0.00 | 99 | 1017.6 |
| 20260508025719 | 45 | 225 | 0.0 | 0.9 | 0.00 | 0.00 | 0.00 | 99 | 1017.6 |
| 20260508025114 | 45 | 203 | 0.9 | 0.9 | 0.00 | 0.00 | 0.00 | 99 | 1017.6 |
| 20260508024525 | 45 | 203 | 1.7 | 1.7 | 0.00 | 0.00 | 0.00 | 99 | 1017.6 |
| 20260508023946 | 46 | 203 | 0.9 | 1.7 | 0.00 | 0.00 | 0.00 | 99 | 1017.2 |
| 20260508023341 | 46 | 203 | 0.9 | 1.7 | 0.00 | 0.00 | 0.00 | 99 | 1017.2 |
| 20260508022723 | 46 | 203 | 0.9 | 1.7 | 0.00 | 0.00 | 0.00 | 98 | 1017.2 |
| 20260508021515 | 47 | 203 | 0.0 | 0.0 | 0.00 | 0.00 | 0.00 | 96 | 1017.2 |
| 20260508020945 | 47 | 203 | 0.0 | 0.0 | 0.00 | 0.00 | 0.00 | 96 | 1016.9 |
| 20260508020349 | 47 | 203 | 0.0 | 0.9 | 0.00 | 0.00 | 0.00 | 95 | 1016.9 |
| 20260508015738 | 48 | 203 | 0.0 | 0.0 | 0.00 | 0.00 | 0.00 | 94 | 1016.9 |
| 20260508015145 | 48 | 203 | 0.9 | 0.9 | 0.00 | 0.00 | 0.00 | 93 | 1016.9 |
| 20260508014517 | 48 | 203 | 0.9 | 0.9 | 0.00 | 0.00 | 0.00 | 91 | 1016.5 |
| 20260508012725 | 50 | 180 | 1.7 | 1.7 | 0.00 | 0.00 | 0.00 | 88 | 1016.2 |
| 20260508011528 | 51 | 203 | 0.9 | 0.9 | 0.00 | 0.00 | 0.00 | 84 | 1016.2 |
| 20260508010935 | 51 | 180 | 0.0 | 1.7 | 0.00 | 0.00 | 0.00 | 83 | 1016.2 |
| 20260508010349 | 52 | 158 | 0.9 | 0.9 | 0.00 | 0.00 | 0.00 | 81 | 1016.2 |
| 20260508005736 | 53 | 158 | 0.0 | 1.7 | 0.00 | 0.00 | 0.00 | 80 | 1015.9 |
| 20260508003908 | 54 | 203 | 0.9 | 1.7 | 0.00 | 0.00 | 0.00 | 75 | 1015.9 |
| 20260508003340 | 55 | 158 | 0.0 | 2.6 | 0.00 | 0.00 | 0.00 | 74 | 1015.5 |
| 20260508002734 | 57 | 248 | 0.0 | 1.7 | 0.00 | 0.00 | 0.00 | 70 | 1015.5 |
| 20260508002110 | 58 | 248 | 1.7 | 1.7 | 0.00 | 0.00 | 0.00 | 66 | 1015.5 |
| 20260508001532 | 59 | 23 | 0.0 | 0.0 | 0.00 | 0.00 | 0.00 | 62 | 1015.5 |
| 20260508000949 | 60 | 45 | 0.9 | 1.7 | 0.00 | 0.00 | 0.00 | 59 | 1015.2 |
| 20260508000335 | 60 | 338 | 1.7 | 2.6 | 0.00 | 0.00 | 0.00 | 53 | 1015.2 |
| 20260507235747 | 61 | 23 | 1.7 | 4.3 | 0.00 | 0.00 | 0.00 | 53 | 1015.2 |
| 20260507235119 | 62 | 23 | 2.6 | 4.3 | 0.00 | 0.00 | 0.00 | 51 | 1014.9 |
| 20260507234551 | 62 | 45 | 3.5 | 3.5 | 0.00 | 0.00 | 0.00 | 49 | 1014.9 |
| 20260507233938 | 64 | 338 | 1.7 | 5.2 | 0.00 | 0.00 | 0.00 | 48 | 1014.9 |
| 20260507233347 | 65 | 0 | 3.5 | 5.2 | 0.00 | 0.00 | 0.00 | 47 | 1014.9 |
| 20260507231535 | 65 | 23 | 3.5 | 3.5 | 0.00 | 0.00 | 0.00 | 48 | 1014.9 |
| 20260507225744 | 65 | 338 | 5.2 | 5.2 | 0.00 | 0.00 | 0.00 | 48 | 1014.9 |
| 20260507225120 | 64 | 23 | 2.6 | 2.6 | 0.00 | 0.00 | 0.00 | 50 | 1014.9 |
| 20260507224527 | 65 | 45 | 6.1 | 7.0 | 0.00 | 0.00 | 0.00 | 49 | 1014.9 |
| 20260507223918 | 64 | 315 | 4.3 | 6.1 | 0.00 | 0.00 | 0.00 | 49 | 1014.5 |
| 20260507223338 | 64 | 23 | 5.2 | 9.6 | 0.00 | 0.00 | 0.00 | 49 | 1014.5 |
| 20260507222719 | 66 | 23 | 8.7 | 8.7 | 0.00 | 0.00 | 0.00 | 47 | 1014.5 |
| 20260507221516 | 64 | 315 | 2.6 | 2.6 | 0.00 | 0.00 | 0.00 | 50 | 1014.5 |
| 20260507220312 | 65 | 0 | 2.6 | 7.0 | 0.00 | 0.00 | 0.00 | 49 | 1014.2 |
| 20260507215738 | 65 | 23 | 1.7 | 3.5 | 0.00 | 0.00 | 0.00 | 52 | 1014.2 |
| 20260507215144 | 66 | 23 | 4.3 | 4.3 | 0.00 | 0.00 | 0.00 | 49 | 1014.2 |
| 20260507213944 | 67 | 113 | 3.5 | 8.7 | 0.00 | 0.00 | 0.00 | 48 | 1014.2 |
| 20260507212737 | 68 | 293 | 3.5 | 3.5 | 0.00 | 0.00 | 0.00 | 52 | 1014.2 |
| 20260507211532 | 68 | 0 | 3.5 | 3.5 | 0.00 | 0.00 | 0.00 | 50 | 1013.8 |
| 20260507210928 | 68 | 90 | 2.6 | 4.3 | 0.00 | 0.00 | 0.00 | 49 | 1013.8 |
| 20260507210344 | 68 | 338 | 7.8 | 10.4 | 0.00 | 0.00 | 0.00 | 49 | 1013.8 |
| 20260507204547 | 68 | 113 | 0.9 | 1.7 | 0.00 | 0.00 | 0.00 | 49 | 1013.8 |
| 20260507202737 | 67 | 23 | 1.7 | 2.6 | 0.00 | 0.00 | 0.00 | 52 | 1013.8 |
| 20260507202152 | 68 | 23 | 2.6 | 3.5 | 0.00 | 0.00 | 0.00 | 50 | 1013.8 |
| 20260507201538 | 68 | 0 | 5.2 | 5.2 | 0.00 | 0.00 | 0.00 | 52 | 1013.8 |
| 20260507200938 | 69 | 45 | 4.3 | 4.3 | 0.00 | 0.00 | 0.00 | 51 | 1013.8 |
| 20260507195752 | 68 | 203 | 2.6 | 5.2 | 0.00 | 0.00 | 0.00 | 53 | 1013.8 |
| 20260507195151 | 68 | 158 | 1.7 | 5.2 | 0.00 | 0.00 | 0.00 | 56 | 1014.2 |
| 20260507194514 | 66 | 270 | 0.0 | 1.7 | 0.00 | 0.00 | 0.00 | 55 | 1014.2 |
| 20260507193951 | 65 | 23 | 1.7 | 7.0 | 0.00 | 0.00 | 0.00 | 54 | 1014.2 |
| 20260507192732 | 66 | 45 | 3.5 | 5.2 | 0.00 | 0.00 | 0.00 | 57 | 1014.2 |
| 20260507192146 | 67 | 270 | 2.6 | 4.3 | 0.00 | 0.00 | 0.00 | 57 | 1014.5 |
| 20260507191535 | 67 | 23 | 2.6 | 2.6 | 0.00 | 0.00 | 0.00 | 57 | 1014.5 |
| 20260507190936 | 68 | 23 | 3.5 | 5.2 | 0.00 | 0.00 | 0.00 | 57 | 1014.5 |
| 20260507185724 | 64 | 23 | 0.9 | 4.3 | 0.00 | 0.00 | 0.00 | 60 | 1014.5 |
| 20260507185150 | 67 | 68 | 4.3 | 5.2 | 0.00 | 0.00 | 0.00 | 56 | 1014.9 |
| 20260507184548 | 67 | 270 | 1.7 | 2.6 | 0.00 | 0.00 | 0.00 | 58 | 1014.9 |
| 20260507183951 | 67 | 23 | 3.5 | 5.2 | 0.00 | 0.00 | 0.00 | 58 | 1014.9 |
| 20260507183308 | 66 | 113 | 1.7 | 3.5 | 0.00 | 0.00 | 0.00 | 57 | 1014.9 |
| 20260507182714 | 67 | 23 | 1.7 | 3.5 | 0.00 | 0.00 | 0.00 | 61 | 1014.9 |
| 20260507182150 | 68 | 23 | 4.3 | 4.3 | 0.00 | 0.00 | 0.00 | 56 | 1014.9 |
| 20260507181510 | 66 | 248 | 1.7 | 3.5 | 0.00 | 0.00 | 0.00 | 61 | 1014.9 |
| 20260507180927 | 65 | 158 | 1.7 | 4.3 | 0.00 | 0.00 | 0.00 | 61 | 1015.2 |
| 20260507180324 | 64 | 203 | 1.7 | 2.6 | 0.00 | 0.00 | 0.00 | 60 | 1015.2 |
| 20260507174520 | 64 | 270 | 1.7 | 1.7 | 0.00 | 0.00 | 0.00 | 63 | 1015.5 |
| 20260507173945 | 62 | 270 | 0.9 | 3.5 | 0.00 | 0.00 | 0.00 | 62 | 1015.2 |
| 20260507172732 | 63 | 90 | 0.9 | 4.3 | 0.00 | 0.00 | 0.00 | 64 | 1015.5 |
| 20260507172129 | 64 | 203 | 3.5 | 3.5 | 0.00 | 0.00 | 0.00 | 63 | 1015.5 |
| 20260507170911 | 62 | 0 | 3.5 | 3.5 | 0.00 | 0.00 | 0.00 | 63 | 1015.5 |
| 20260507170321 | 61 | 0 | 2.6 | 4.3 | 0.00 | 0.00 | 0.00 | 63 | 1015.5 |
| 20260507165750 | 62 | 23 | 3.5 | 7.8 | 0.00 | 0.00 | 0.00 | 61 | 1015.9 |
| 20260507165135 | 63 | 180 | 1.7 | 2.6 | 0.00 | 0.00 | 0.00 | 65 | 1015.9 |
| 20260507163923 | 61 | 23 | 3.5 | 5.2 | 0.00 | 0.00 | 0.00 | 63 | 1015.9 |
| 20260507162722 | 64 | 180 | 2.6 | 3.5 | 0.00 | 0.00 | 0.00 | 63 | 1015.9 |
| 20260507162152 | 63 | 180 | 2.6 | 4.3 | 0.00 | 0.00 | 0.00 | 65 | 1015.9 |
| 20260507161555 | 64 | 180 | 4.3 | 4.3 | 0.00 | 0.00 | 0.00 | 62 | 1015.9 |
| 20260507160923 | 62 | 23 | 2.6 | 3.5 | 0.00 | 0.00 | 0.00 | 66 | 1016.2 |
| 20260507160346 | 60 | 45 | 1.7 | 3.5 | 0.00 | 0.00 | 0.00 | 67 | 1016.2 |
| 20260507155731 | 61 | 0 | 1.7 | 4.3 | 0.00 | 0.00 | 0.00 | 65 | 1016.2 |
| 20260507155123 | 60 | 0 | 1.7 | 1.7 | 0.00 | 0.00 | 0.00 | 66 | 1016.2 |
| 20260507154519 | 60 | 0 | 1.7 | 3.5 | 0.00 | 0.00 | 0.00 | 64 | 1016.2 |
| 20260507153911 | 60 | 270 | 1.7 | 3.5 | 0.00 | 0.00 | 0.00 | 68 | 1016.2 |
| 20260507153315 | 60 | 270 | 0.9 | 4.3 | 0.00 | 0.00 | 0.00 | 65 | 1016.2 |
| 20260507152750 | 60 | 0 | 3.5 | 4.3 | 0.00 | 0.00 | 0.00 | 67 | 1016.2 |
| 20260507151534 | 59 | 23 | 2.6 | 2.6 | 0.00 | 0.00 | 0.00 | 67 | 1016.2 |
| 20260507150347 | 59 | 270 | 0.9 | 2.6 | 0.00 | 0.00 | 0.00 | 71 | 1016.2 |
| 20260507145715 | 59 | 180 | 2.6 | 3.5 | 0.00 | 0.00 | 0.00 | 70 | 1016.2 |
| 20260507145111 | 59 | 0 | 1.7 | 2.6 | 0.00 | 0.00 | 0.00 | 69 | 1016.2 |
| 20260507144515 | 59 | 203 | 1.7 | 1.7 | 0.00 | 0.00 | 0.00 | 70 | 1016.2 |
| 20260507143939 | 59 | 203 | 2.6 | 3.5 | 0.00 | 0.00 | 0.00 | 70 | 1016.2 |
| 20260507143320 | 59 | 338 | 0.0 | 1.7 | 0.00 | 0.00 | 0.00 | 74 | 1016.2 |
| 20260507142123 | 58 | 23 | 2.6 | 2.6 | 0.00 | 0.00 | 0.00 | 75 | 1016.2 |
| 20260507141517 | 58 | 315 | 0.9 | 0.9 | 0.00 | 0.00 | 0.00 | 79 | 1016.5 |
| 20260507140926 | 57 | 248 | 0.9 | 2.6 | 0.00 | 0.00 | 0.00 | 81 | 1016.5 |
| 20260507140342 | 57 | 293 | 1.7 | 1.7 | 0.00 | 0.00 | 0.00 | 80 | 1016.5 |
| 20260507135143 | 56 | 225 | 0.0 | 0.9 | 0.00 | 0.00 | 0.00 | 81 | 1016.5 |
| 20260507134519 | 56 | 0 | 1.7 | 1.7 | 0.00 | 0.00 | 0.00 | 80 | 1016.5 |
| 20260507133319 | 56 | 0 | 0.9 | 1.7 | 0.00 | 0.00 | 0.00 | 88 | 1016.9 |
| 20260507132742 | 56 | 23 | 0.0 | 0.0 | 0.00 | 0.00 | 0.00 | 94 | 1016.9 |
| 20260507132122 | 56 | 225 | 0.0 | 0.0 | 0.00 | 0.00 | 0.00 | 94 | 1016.9 |
| 20260507130911 | 55 | 113 | 0.0 | 0.0 | 0.00 | 0.00 | 0.00 | 97 | 1016.9 |
| 20260507130311 | 54 | 203 | 0.0 | 0.0 | 0.00 | 0.00 | 0.00 | 97 | 1016.5 |
| 20260507124550 | 54 | 293 | 0.0 | 0.0 | 0.00 | 0.00 | 0.00 | 99 | 1016.9 |
| 20260507123943 | 53 | 270 | 0.0 | 0.0 | 0.00 | 0.00 | 0.00 | 99 | 1016.5 |
| 20260507123343 | 53 | 0 | 0.0 | 0.0 | 0.00 | 0.00 | 0.00 | 99 | 1016.5 |
| 20260507122748 | 53 | 225 | 0.0 | 0.0 | 0.00 | 0.00 | 0.00 | 99 | 1016.5 |
| 20260507122127 | 53 | 225 | 0.0 | 0.0 | 0.00 | 0.00 | 0.00 | 99 | 1016.5 |
| 20260507120340 | 52 | 180 | 0.0 | 0.0 | 0.00 | 0.00 | 0.00 | 99 | 1016.9 |
| 20260507115712 | 51 | 0 | 0.0 | 0.0 | 0.00 | 0.00 | 0.00 | 99 | 1016.9 |
| 20260507115146 | 51 | 270 | 0.0 | 0.0 | 0.00 | 0.00 | 0.00 | 99 | 1016.9 |
| 20260507114527 | 51 | 180 | 0.0 | 0.0 | 0.00 | 0.00 | 0.00 | 99 | 1016.5 |
| 20260507113916 | 51 | 203 | 0.0 | 0.0 | 0.00 | 0.00 | 0.00 | 99 | 1016.9 |
| 20260507113326 | 51 | 270 | 0.0 | 0.0 | 0.00 | 0.00 | 0.00 | 99 | 1016.9 |
| 20260507112752 | 51 | 225 | 0.0 | 0.0 | 0.00 | 0.00 | 0.00 | 99 | 1016.9 |
| 20260507111513 | 50 | 270 | 0.0 | 0.0 | 0.00 | 0.00 | 0.00 | 99 | 1016.5 |
| 20260507110940 | 50 | 270 | 0.0 | 0.0 | 0.00 | 0.00 | 0.00 | 99 | 1016.2 |
| 20260507110320 | 50 | 338 | 0.0 | 0.0 | 0.00 | 0.00 | 0.00 | 99 | 1016.2 |
| 20260507105717 | 50 | 45 | 0.0 | 0.0 | 0.00 | 0.00 | 0.00 | 99 | 1016.2 |